Location: *
(1.3500°S, 147.5000°W)
Time: 16:07:20
(UTC+00:00)

Cosmos 304 Rocket - Pass Details

Date: 07 April 2020
Orbit: 680 x 687 km, 74.0° (Epoch: 26 May)

Event Time Altitude Azimuth Distance (km) Brightness Sun altitude
Rises 04:11:35 0° 2° (N) 3,021 7.2 -5.0°
Reaches altitude 10° 04:14:00 10° 10° (N) 2,111 6.3 -5.6°
Maximum altitude 04:18:25 38° 78° (ENE) 1,029 4.3 -6.7°
Drops below altitude 10° 04:22:51 10° 146° (SE) 2,125 5.9 -7.8°
Sets 04:25:17 0° 154° (SSE) 3,045 6.8 -8.4°
